User: anonymous   Login
Location: Campillo
(40.8621°N, 4.2488°W)
Time: 17:14:43
(UTC+00:00)
Language:

Cosmos 1833 Rocket - Orbit

View from above orbital plane
View from above orbital plane
View from above satellite
View from above satellite

Ground track
Ground track

The orbit data is extracted from the following two-line orbital elements,

1 17590U 87027B   21215.72809411  .00000015  00000-0  31342-4 0  9992
2 17590  71.0012 213.1750 0004843 189.6848 170.4183 14.16802402777550
Epoch (UTC): 03 August 2021 17:28:27
Eccentricity: 0.0004843
inclination: 71.0012°
perigee height: 832 km
apogee height: 839 km
right ascension of ascending node: 213.1750°
argument of perigee: 189.6848°
revolutions per day: 14.16802402
mean anomaly at epoch: 170.4183°
orbit number at epoch: 77755

The dashed part of the orbit path shows where the satellite is in the earth's shadow,  

DLR